Change the Weather History Date:

Monday, March 26, 2012

  Actual Average Record
Temperature  
Mean Temperature 57 °F 46 °F  
Max Temperature 64 °F 56 °F 82 °F (1991)
Min Temperature 50 °F 36 °F 4 °F (1955)
Degree Days  
Heating Degree Days 8 19  
Month to date heating degree days 628  
Since 1 July heating degree days 4970  
Cooling Degree Days 0 0  
Month to date cooling degree days 0  
Year to date cooling degree days 0  
Growing Degree Days 7 (Base 50)    
Moisture  
Dew Point 42 °F    
Average Humidity 58    
Maximum Humidity 86    
Minimum Humidity 41    
Precipitation  
Precipitation 0.00 in 0.08 in 1.02 in (1906)
Month to date precipitation 2.01  
Year to date precipitation 5.41  
Sea Level Pressure  
Sea Level Pressure 30.13 in    
Wind  
Wind Speed 9 mph (East)    
Max Wind Speed 21 mph    
Max Gust Speed 28 mph    
Visibility 10 miles    
Events      
T = Trace of Precipitation, MM = Missing Value Source: NWS Daily Summary

Daily Weather History Graph

Daily Weather History Graph

Search for Another Location

Airport or City:

Trip Planner

Search our weather history database for the weather conditions in past years. The results will help you decide how hot, cold, wet, or windy it might be!

Date:

Astronomy

Mar. 26, 2012 Rise Set
Actual Time 6:57 AM CDT 7:23 PM CDT
Civil Twilight 6:30 AM CDT 7:50 PM CDT
Nautical Twilight 5:58 AM CDT 8:22 PM CDT
Astronomical Twilight 5:26 AM CDT 8:55 PM CDT
Moon 8:47 AM CDT (3/26) 11:34 PM CDT (3/26)
Length of Visible Light 13h 20m
Length of Day
12h 25m
Waxing Crescent, 15% of the Moon is Illuminated
Mar 26
Waxing Crescent
Mar 30
First Quarter
Apr 6
Full
Apr 13
Last Quarter
Apr 21
New

Hourly Weather History & Observations

Time (CDT) Temp. Dew Point Humidity Pressure Visibility Wind Dir Wind Speed Gust Speed Precip Events Conditions
12:54 AM 60.1 °F 51.1 °F 72% 30.06 in 10.0 mi Calm Calm - N/A   Clear
1:54 AM 61.0 °F 51.1 °F 70% 30.06 in 10.0 mi Calm Calm - N/A   Clear
2:54 AM 61.0 °F 51.1 °F 70% 30.06 in 10.0 mi Calm Calm - N/A   Clear
3:54 AM 55.9 °F 50.0 °F 80% 30.07 in 10.0 mi Calm Calm - N/A   Clear
4:54 AM 51.1 °F 46.9 °F 86% 30.10 in 9.0 mi NE 8.1 mph - N/A   Clear
5:54 AM 54.0 °F 50.0 °F 86% 30.14 in 9.0 mi East 13.8 mph - N/A   Clear
6:54 AM 52.0 °F 45.0 °F 77% 30.17 in 10.0 mi East 15.0 mph 23.0 mph N/A   Mostly Cloudy
7:54 AM 50.0 °F 43.0 °F 77% 30.18 in 10.0 mi East 18.4 mph 23.0 mph N/A   Clear
8:54 AM 52.0 °F 42.1 °F 69% 30.19 in 10.0 mi East 12.7 mph - N/A   Clear
9:54 AM 54.0 °F 41.0 °F 62% 30.20 in 10.0 mi East 11.5 mph 20.7 mph N/A   Clear
10:54 AM 55.9 °F 39.0 °F 53% 30.22 in 10.0 mi East 13.8 mph - N/A   Scattered Clouds
11:54 AM 59.0 °F 39.9 °F 49% 30.21 in 10.0 mi East 10.4 mph 19.6 mph N/A   Scattered Clouds
12:54 PM 60.1 °F 39.9 °F 47% 30.20 in 10.0 mi East 16.1 mph - N/A   Clear
1:54 PM 62.1 °F 41.0 °F 46% 30.16 in 10.0 mi ESE 13.8 mph 19.6 mph N/A   Clear
2:54 PM 64.0 °F 42.1 °F 45% 30.15 in 10.0 mi SE 15.0 mph 23.0 mph N/A   Clear
3:54 PM 63.0 °F 41.0 °F 45% 30.13 in 10.0 mi ESE 16.1 mph 23.0 mph N/A   Partly Cloudy
4:54 PM 64.0 °F 39.9 °F 41% 30.11 in 10.0 mi East 16.1 mph 21.9 mph N/A   Clear
5:54 PM 63.0 °F 39.0 °F 41% 30.10 in 10.0 mi ESE 13.8 mph - N/A   Scattered Clouds
6:54 PM 60.1 °F 37.0 °F 42% 30.10 in 10.0 mi ESE 13.8 mph 25.3 mph N/A   Clear
7:54 PM 55.9 °F 35.1 °F 45% 30.10 in 10.0 mi East 12.7 mph - N/A   Clear
8:54 PM 54.0 °F 35.1 °F 49% 30.11 in 10.0 mi East 13.8 mph - N/A   Clear
9:54 PM 54.0 °F 34.0 °F 47% 30.11 in 10.0 mi ESE 20.7 mph - N/A   Clear
10:54 PM 53.1 °F 34.0 °F 48% 30.09 in 10.0 mi ESE 18.4 mph 25.3 mph N/A   Clear
11:54 PM 52.0 °F 36.0 °F 54% 30.07 in 10.0 mi SE 18.4 mph 27.6 mph N/A   Clear